Preview of NWS' New Version of Forecast
This preview is not operational and should not be used for support decisions.

Regional Weather Roundup (RWR)

Issued by National Weather Service (NWS)

                            
000
ASUS45 KABQ 220801
RWRNM 
NEW MEXICO REGIONAL WEATHER ROUNDUP
NATIONAL WEATHER SERVICE ALBUQUERQUE NM
200 AM MDT MON APR 22 2019

NOTE: "FAIR" MEANS FEW OR NO CLOUDS BELOW 12,000 FEET AGL WITH NO
       SIGNIFICANT WEATHER OR OBSTRUCTIONS TO VISION.

      THIS PRODUCT IS RELEASED AS TWO VERSIONS.  ONE VERSION NEAR
      THE TOP OF THE HOUR CONTAINING PRELIMINARY DATA FROM ALBUQUERQUE
      AND OTHER STATIONS.  A FINAL VERSION WITH ADDITIONAL DATA IS 
      ISSUED ABOUT 10 MINUTES AFTER THE HOUR.
 
NMZ501-503-504-510>518-220900-
NORTHWEST PLATEAU/NORTHCENTRAL MOUNTAINS
  
CITY           SKY/WX    TMP DP  RH WIND       PRES   REMARKS
FARMINGTON     FAIR      55  16  21 CALM      29.99R                  
LOS ALAMOS       N/A     55  13  19 SE3       30.10R                  
SANTA FE       FAIR      48  23  37 N6        30.05R                  
TAOS           FAIR      40  20  44 N3        30.11S                  
ANGEL FIRE       N/A     32  28  83 CALM      30.16S                  

$$
NMZ402-403-502-505>509-220900-
WESTCENTRAL MOUNTAINS/SOUTHWEST MOUNTAINS
  
CITY           SKY/WX    TMP DP  RH WIND       PRES   REMARKS
GALLUP         FAIR      42  20  41 CALM      30.08S                  
GRANTS         FAIR      40  21  45 NW9       30.10S WCI  34          
SILVER CITY    FAIR      48  21  35 N7        30.06R                  

$$
NMZ407-409-411-412-220900-
SOUTHERN DESERTS
  
CITY           SKY/WX    TMP DP  RH WIND       PRES   REMARKS
DEMING         FAIR      65  30  27 W13       30.00S                  
LAS CRUCES     FAIR      67  30  25 W16       29.99R                  
HOLLOMAN AFB   FAIR      69  30  24 W8        29.97S                  
ALAMOGORDO     FAIR      63  32  31 SE7       29.97S                  
T OR C         FAIR      59  16  18 CALM      29.99S                  

$$
NMZ519>523-220900-
CENTRAL VALLEYS/CENTRAL HIGHLANDS
  
CITY           SKY/WX    TMP DP  RH WIND       PRES   REMARKS
ALBUQUERQUE    FAIR      54  27  35 SE6       30.02S                  
DOUBLE EAGLE   FAIR      44  29  56 CALM      30.05R                  
MORIARTY ARPT  FAIR      37  29  72 CALM      30.08R                  
CLINES CORNERS FAIR      46  21  37 W12       30.10R                  
BELEN          FAIR      52  29  40 CALM      30.02S                  
SOCORRO        FAIR      55  24  30 CALM      30.00R                  

$$
NMZ524>526-539-540-220900-
SOUTHCENTRAL MOUNTAINS
  
CITY           SKY/WX    TMP DP  RH WIND       PRES   REMARKS
RUIDOSO        FAIR      55  18  22 S6        30.10F                  

$$
NMZ527>531-220900-
NORTHEAST HIGHLANDS/NORTHEAST PLAINS
  
CITY           SKY/WX    TMP DP  RH WIND       PRES   REMARKS
LAS VEGAS      CLOUDY    44  25  47 NE6       30.06S                  
RATON          MOCLDY    49  36  61 N12       30.07R                  
CLAYTON        FAIR      49  37  63 N14       30.02R                  

$$
NMZ532>537-220900-
EASTCENTRAL PLAINS
  
CITY           SKY/WX    TMP DP  RH WIND       PRES   REMARKS
SANTA ROSA     FAIR      53  24  32 S7        29.95R                  
TUCUMCARI      FAIR      56  38  50 E10       29.96R                  
CANNON AFB     FAIR      51  27  39 N6        29.95S                  
CLOVIS AIRPORT FAIR      49  30  48 NW8       29.95S                  

$$
NMZ028-029-538-220900-
SOUTHEAST PLAINS
  
CITY           SKY/WX    TMP DP  RH WIND       PRES   REMARKS
ROSWELL        FAIR      60  23  24 VRB3      29.89F                  
ARTESIA        FAIR      64  27  24 W8        29.90S                  
CARLSBAD       FAIR      67  47  48 SE12      29.88S                  
HOBBS          FAIR      63  54  72 S12       29.93S                  


$$